ECHOSTAR 12 (RAINBOW 1) 
1 27852U 03033A   19258.05882755 -.00000210  00000-0  00000+0 0  9991
2 27852   0.0359 280.0730 0001692 218.6500 149.7980  1.00273884 59200
ATLAS 5 CENTAUR R/B     
1 27853U 03033B   19257.27386613 -.00000088  00000-0  00000-0 0  9991
2 27853  17.7890 121.7179 6011577 186.4139 159.5897  2.11270196124602